Regional Weather Roundup
Issued by NWS Boston, MA

Current Version | Previous Version | Text Only | Print | Product List | Glossary On
Versions: 1 2 3 4 5 6 7 8 9 10 11 12 13 14 15 16 17 18 19 20 21 22 23 24 25 26 27
000
ASUS41 KBOX 230610
RWRBOX

REGIONAL WEATHER ROUNDUP
NATIONAL WEATHER SERVICE TAUNTON MA
100 AM EST TUE JAN 23 2018

NOTE:  "FAIR" INDICATES FEW OR NO CLOUDS BELOW 12,000 FEET WITH NO
SIGNIFICANT WEATHER AND/OR OBSTRUCTIONS TO VISIBILITY.

MAZALL-230700-
EASTERN MASSACHUSETTS

CITY           SKY/WX    TMP DP  RH WIND       PRES   REMARKS
BOSTON         DRIZZLE   39  38  96 N7        30.13F FOG
6HR MIN TEMP:  38; 6HR MAX TEMP:  39; 6HR PCP:  0.01;

BEVERLY        CLOUDY    34  34 100 NE6       30.14F FOG     WCI  29
LAWRENCE       CLOUDY    32  29  88 N7        30.16F FOG     WCI  26
BEDFORD        CLOUDY    31  30  96 N5        30.13F FOG     WCI  26
BLUE HILL        N/A     37  37 100 NE6       30.10S
NORWOOD        FOG       40  39  97 CALM      30.13F VSB 3/4
MARSHFIELD     CLOUDY    39  39 100 CALM      30.12S FOG
PLYMOUTH       CLOUDY    43  41  93 CALM      30.11F
TAUNTON        FOG       37  36  96 CALM      30.11F VSB 1/4
NEW BEDFORD    CLOUDY    39  39 100 CALM      30.11S
$$

MAZALL-230700-
CAPE COD AND THE ISLANDS

CITY           SKY/WX    TMP DP  RH WIND       PRES   REMARKS
FALMOUTH       CLOUDY    39  39 100 SE9       30.11  FOG
HYANNIS        CLOUDY    42  40  92 S9        30.10F
CHATHAM        CLOUDY    44  43  96 S8G17     30.12F
PROVINCETOWN   CLOUDY    42  39  89 S10       30.12F
NANTUCKET      CLOUDY    43  43 100 SE9       30.12F
MARTHAS VNYRD  CLOUDY   N/A N/A N/A S8        30.10F
$$

MAZALL-230700-
CENTRAL AND WESTERN MASSACHUSETTS

CITY           SKY/WX    TMP DP  RH WIND       PRES   REMARKS
WORCESTER      FOG       30  28  92 NE5       30.08F VSB 1/4 WCI  25
6HR MIN TEMP:  30; 6HR MAX TEMP:  31; 6HR PCP:  0.07;

FITCHBURG      CLOUDY    32  30  92 N3        30.14F FOG
ORANGE         CLOUDY    32  32 100 CALM      30.11F FOG
SPRINGFIELD    CLOUDY    33  33  98 NE5       30.09  FOG     WCI  29
WESTFIELD      CLOUDY    33  33 100 N7        30.09F FOG     WCI  27
NORTH ADAMS    CLOUDY    35  31  85 E17G28    30.02F WCI  25
PITTSFIELD     CLOUDY    34  32  92 VRB3      30.00F
$$

RIZALL-230700-
RHODE ISLAND

CITY           SKY/WX    TMP DP  RH WIND       PRES   REMARKS
PROVIDENCE     FOG       38  38 100 N5        30.12S VSB 3/4
6HR MIN TEMP:  38; 6HR MAX TEMP:  39; 6HR PCP: TRACE;

NEWPORT        FOG       41  41 100 CALM      30.10S VSB 1/2
BLOCK ISLAND   CLOUDY    46  46 100 S10       30.09S FOG
SMITHFIELD     LGT RAIN N/A N/A N/A NE5       30.11S VSB 1/4
WESTERLY       FOG       42  42 100 N5        30.10F VSB 1/4
$$

CTZALL-230700-
CONNECTICUT

CITY           SKY/WX    TMP DP  RH WIND       PRES   REMARKS
BRADLEY INTL   DRIZZLE   34  34 100 N8        30.09F FOG     WCI  27
6HR MIN TEMP:  34; 6HR MAX TEMP:  37; 6HR PCP: TRACE;

HARTFORD       FOG       35  35 100 NE6       30.08F VSB 1   WCI  30
BRIDGEPORT     FOG       40  39  97 NE9       30.06F VSB 1/4
DANBURY        FOG       39  38  96 NE5       30.04F VSB 1/4
GROTON         FOG       42  41  96 NE6       30.08F VSB 1/4
NEW HAVEN      FOG       41  39  93 NE3       30.06F VSB 1/2
CHESTER        FOG       39  39 100 CALM      30.06F VSB<1/4
MERIDEN        FOG       36  36 100 N6        30.07F VSB 1   WCI  31
WILLIMANTIC    FOG       37  36  96 N5        30.09F VSB 1/4
OXFORD         LGT RAIN  36  36 100 NE9       30.04F VSB 1/4 WCI  29
$$

MEZ002-015-021-024-NHZ003-005-008-011-012-014-VTZ005-008-230700-
NORTHERN NEW ENGLAND

CITY           SKY/WX    TMP DP  RH WIND       PRES   REMARKS
PORTLAND ME    MIX PCPN  22  21  96 N9        30.22F FOG     WCI  12
6HR MIN TEMP:  21; 6HR MAX TEMP:  23; 6HR PCP:  0.11;

BANGOR ME      SNOW      19  16  88 NE7       30.28F VSB 1/2 WCI  10
CONCORD NH     CLOUDY    27  24  89 N6        30.15F FOG     WCI  20
MANCHESTER NH  FRZ DRZL  29  27  92 N9        30.13F VSB 1   WCI  20
NASHUA NH      LGT SNOW  29  28  96 VRB3      30.15F FOG
PORTSMOUTH NH  FRZ DRZL  26  24  94 N3        30.16F FOG
JAFFREY NH     CLOUDY    29  28  96 CALM      30.09F FOG
KEENE NH       CLOUDY    30  28  92 CALM      30.11F
BURLINGTON VT  CLOUDY    35  30  82 SE9       29.94F WCI  28
MT. WASHINGTON SNOWSHWR  19  19 100 S44         N/A  VSB 0   WCI  -2
$$

NYZ052-076-230700-
EASTERN NEW YORK

CITY           SKY/WX    TMP DP  RH WIND       PRES   REMARKS
ALBANY         CLOUDY    38  34  85 S9        29.97F WCI  31
6HR MIN TEMP:  33; 6HR MAX TEMP:  39; 6HR PCP: TRACE;

NEW YORK CITY  FOG       36  35  96 NE8       30.03F VSB 1/8 WCI  30
6HR MIN TEMP:  36; 6HR MAX TEMP:  39;

$$

ANZALL-230700-
MARINE OBSERVATIONS

STATION/POSITION TIME  TEMP    WIND        PRES    VSBY  WAVE
                       AIR SEA DIR/SP/G                  HT/PER
                 (UTC) (F)     (DEG/KT/KT) (MB)    (MI)  (FT/S)
BOSTON BUOY      0550   41 40   70/  4/  6 1019.5F         6/ 7
BUZZARDS BAY     0500   40     140/ 16/ 17 1019.4F
NANTUCKET SOUND  0550   40 37  140/ 12/ 14 1019.3F         2/ 4
MASS BAY-STELLWA 0504   40 39              1019.9F         5/ 6
ISLE OF SHOALS   0500   29      20/  9/ 10 1021.2F
S OF BLOCK IS    0543      40                N/A           3/ 4
$$

......................KEY.........................
  SKY/WX - SKY CONDITION/PRESENT WEATHER
  TMP    - TEMPERATURE IN FAHRENHEIT
  DWPT   - DEWPOINT IN FAHRENHEIT
  RH     - RELATIVE HUMIDITY IN PERCENT
  WIND   - DIRECTION AND SPEED IN MPH
  PRES   - MEAN SEA LEVEL PRESSURE IN INCHES OF HG
  WCI    - WIND CHILL INDEX
  VSB    - VISIBILITY IN MILES
  HX     - HEAT INDEX
  TC     - TEMPERATURE IN CELSIUS
  VRB    - VARIABLE WIND DIRECTION
  N/A    - NOT AVAILABLE




USA.gov is the U.S. government's official web portal to all federal, state and local government web resources and services.